EUTELSAT 7A

Last updated on Thu Nov 21 2024 00:02:40 GMT+0000 (Coordinated Universal Time)

1 28187U 04008A 24325.39546206 .00000105 00000+0 00000+0 0 9993 2 28187 4.3673 78.8016 0004809 170.4561 173.8067 1.00271295 75591
UTC large
Height (km)
Speed (km/s)
/
Latitude / Longitude
Inclination (degrees)
Orbital Period (minutes)
Azimuth
Elevation
Range (km)
Doppler Factor

Next 0 passes for location: London (51.5072 / 0.1276)

Sorry there are no passes over London.